Change the Weather History Date:

Friday, November 30, 2012

  Actual Average Record
Temperature  
Mean Temperature 51 °F 42 °F  
Max Temperature 53 °F 47 °F 58 °F (2002)
Min Temperature 48 °F 36 °F 19 °F (2014)
Degree Days  
Heating Degree Days 14 23  
Month to date heating degree days 624  
Since 1 July heating degree days 1714  
Cooling Degree Days 0 0  
Month to date cooling degree days 0  
Year to date cooling degree days 19  
Moisture  
Dew Point 48 °F    
Average Humidity 93    
Maximum Humidity 100    
Minimum Humidity 85    
Precipitation  
Precipitation 1.25 in 0.52 in 2.35 in (1975)
Month to date precipitation 15.52  
Year to date precipitation 86.55  
Sea Level Pressure  
Sea Level Pressure 29.29 in    
Wind  
Wind Speed 11 mph (South)    
Max Wind Speed 22 mph    
Max Gust Speed 36 mph    
Visibility 3 miles    
Events Rain    
T = Trace of Precipitation, MM = Missing Value Source: NWS Daily Summary

Daily Weather History Graph

Daily Weather History Graph

Search for Another Location

Airport or City:

Trip Planner

Search our weather history database for the weather conditions in past years. The results will help you decide how hot, cold, wet, or windy it might be!

Date:

Astronomy

Nov. 30, 2012 Rise Set
Actual Time 7:46 AM PST 4:27 PM PST
Civil Twilight 7:10 AM PST 5:03 PM PST
Nautical Twilight 6:31 AM PST 5:42 PM PST
Astronomical Twilight 5:54 AM PST 6:19 PM PST
Moon 6:29 PM PST (11/30) 9:21 AM PST (11/30)
Length of Visible Light 9h 52m
Length of Day
8h 41m
Waning Gibbous, 96% of the Moon is Illuminated
Nov 30
Waning Gibbous
Dec 6
Last Quarter
Dec 13
New
Dec 19
First Quarter
Dec 28
Full

Hourly Weather History & Observations

Time (PST) Temp. Dew Point Humidity Pressure Visibility Wind Dir Wind Speed Gust Speed Precip Events Conditions
12:42 AM 50.0 °F 48.2 °F 94% 29.32 in 2.5 mi SSE 10.4 mph 17.3 mph 0.04 in Rain Light Rain
12:53 AM 50.0 °F 48.0 °F 93% 29.32 in 1.5 mi Variable 4.6 mph 18.4 mph 0.06 in Rain Rain
1:01 AM 50.0 °F 48.2 °F 94% 29.31 in 1.2 mi SSE 9.2 mph 17.3 mph 0.05 in Rain Rain
1:04 AM 50.0 °F 48.2 °F 94% 29.31 in 1.5 mi SSE 10.4 mph 17.3 mph 0.06 in Rain Rain
1:15 AM 50.0 °F 48.2 °F 94% 29.30 in 2.5 mi SSE 12.7 mph 21.9 mph 0.08 in Rain Light Rain
1:17 AM 50.0 °F 48.2 °F 94% 29.30 in 3.0 mi SE 10.4 mph 21.9 mph 0.08 in Rain Light Rain
1:53 AM 50.0 °F 48.0 °F 93% 29.29 in 5.0 mi SSE 11.5 mph 17.3 mph 0.10 in Rain Light Rain
2:53 AM 50.0 °F 46.9 °F 89% 29.29 in 8.0 mi SSE 10.4 mph 18.4 mph 0.00 in   Mostly Cloudy
3:01 AM 50.0 °F 46.4 °F 87% 29.28 in 6.0 mi SSE 10.4 mph 20.7 mph 0.00 in Rain Light Rain
3:53 AM 50.0 °F 46.9 °F 89% 29.26 in 8.0 mi SE 11.5 mph 21.9 mph 0.01 in   Overcast
4:53 AM 50.0 °F 48.0 °F 93% 29.24 in 6.0 mi SE 13.8 mph 23.0 mph 0.00 in   Overcast
5:20 AM 50.0 °F 48.2 °F 94% 29.24 in 1.8 mi SSE 6.9 mph - 0.04 in Rain Rain
5:42 AM 50.0 °F 48.2 °F 94% 29.25 in 1.2 mi South 8.1 mph - 0.16 in Rain Heavy Rain
5:53 AM 50.0 °F 48.0 °F 93% 29.26 in 1.8 mi South 10.4 mph 19.6 mph 0.21 in Rain Light Rain
6:00 AM 50.0 °F 48.2 °F 94% 29.25 in 2.0 mi SSE 11.5 mph 24.2 mph 0.02 in Rain Rain
6:03 AM 50.0 °F 48.2 °F 94% 29.25 in 1.8 mi SSE 13.8 mph 25.3 mph 0.04 in Rain Rain
6:15 AM 48.2 °F 46.4 °F 93% 29.24 in 3.0 mi SE 12.7 mph 21.9 mph 0.10 in Rain Light Rain
6:53 AM 48.0 °F 46.0 °F 93% 29.26 in 7.0 mi Variable 3.5 mph 20.7 mph 0.10 in   Overcast
7:00 AM 48.2 °F 46.4 °F 93% 29.26 in 7.0 mi SSE 6.9 mph - N/A   Overcast
7:30 AM 48.2 °F 46.4 °F 93% 29.24 in 1.8 mi SSE 12.7 mph 18.4 mph 0.02 in Rain Rain
7:39 AM 48.2 °F 48.2 °F 100% 29.25 in 1.2 mi South 10.4 mph 24.2 mph 0.06 in Rain Heavy Rain
7:53 AM 50.0 °F 48.0 °F 93% 29.25 in 1.0 mi South 18.4 mph 34.5 mph 0.16 in Rain Rain
8:02 AM 50.0 °F 48.2 °F 94% 29.24 in 2.0 mi South 11.5 mph 29.9 mph 0.02 in Rain Light Rain
8:06 AM 50.0 °F 48.2 °F 94% 29.25 in 3.0 mi South 9.2 mph 24.2 mph 0.02 in Rain Light Rain
8:14 AM 50.0 °F 48.2 °F 94% 29.25 in 4.0 mi South 10.4 mph 21.9 mph 0.02 in   Overcast
8:23 AM 50.0 °F 46.4 °F 87% 29.26 in 4.0 mi South 10.4 mph 21.9 mph 0.02 in   Overcast
8:53 AM 48.9 °F 46.0 °F 90% 29.28 in 4.0 mi South 15.0 mph 26.5 mph 0.02 in   Overcast
9:29 AM 48.2 °F 46.4 °F 93% 29.28 in 2.5 mi South 10.4 mph 17.3 mph 0.00 in Rain Light Rain
9:36 AM 48.2 °F 46.4 °F 93% 29.28 in 1.8 mi South 9.2 mph 17.3 mph 0.01 in Rain Light Rain
9:44 AM 48.2 °F 48.2 °F 100% 29.28 in 2.0 mi Variable 6.9 mph - 0.01 in Rain Light Rain
9:53 AM 50.0 °F 48.9 °F 96% 29.29 in 2.5 mi South 9.2 mph 25.3 mph 0.02 in Rain Light Rain
10:00 AM 51.8 °F 50.0 °F 94% 29.28 in 2.0 mi South 16.1 mph 33.4 mph N/A   Overcast
10:45 AM 51.8 °F 50.0 °F 94% 29.30 in 2.5 mi South 17.3 mph 27.6 mph 0.00 in   Overcast
10:47 AM 51.8 °F 50.0 °F 94% 29.29 in 1.2 mi South 15.0 mph 27.6 mph 0.00 in   Overcast
10:53 AM 52.0 °F 50.0 °F 93% 29.30 in 1.0 mi South 13.8 mph 31.1 mph 0.01 in Rain Light Rain
10:58 AM 51.8 °F 51.8 °F 100% 29.30 in 2.0 mi South 11.5 mph 29.9 mph 0.01 in Rain Light Rain
11:07 AM 51.8 °F 50.0 °F 94% 29.31 in 2.0 mi South 18.4 mph 28.8 mph 0.01 in   Overcast
11:11 AM 51.8 °F 50.0 °F 94% 29.31 in 2.0 mi South 12.7 mph 28.8 mph 0.01 in   Overcast
11:53 AM 53.1 °F 50.0 °F 89% 29.31 in 2.5 mi South 13.8 mph 31.1 mph 0.01 in   Overcast
12:08 PM 53.6 °F 50.0 °F 88% 29.31 in 2.5 mi South 13.8 mph 24.2 mph N/A   Overcast
12:53 PM 53.1 °F 50.0 °F 89% 29.33 in 2.5 mi South 10.4 mph 25.3 mph N/A   Overcast
1:53 PM 53.1 °F 50.0 °F 89% 29.33 in 2.5 mi SSW 12.7 mph 25.3 mph N/A   Overcast
2:17 PM 53.6 °F 50.0 °F 88% 29.33 in 2.5 mi South 11.5 mph 21.9 mph N/A   Overcast
2:53 PM 52.0 °F 50.0 °F 93% 29.33 in 2.0 mi South 13.8 mph 20.7 mph N/A   Overcast
3:06 PM 51.8 °F 50.0 °F 94% 29.32 in 1.8 mi South 9.2 mph 21.9 mph 0.00 in Rain Light Rain
3:11 PM 51.8 °F 50.0 °F 94% 29.33 in 2.0 mi South 11.5 mph 21.9 mph 0.00 in Rain Light Rain
3:31 PM 51.8 °F 50.0 °F 94% 29.32 in 1.8 mi South 10.4 mph 21.9 mph 0.00 in Rain Light Rain
3:34 PM 51.8 °F 50.0 °F 94% 29.33 in 2.0 mi South 13.8 mph 20.7 mph 0.00 in Rain Light Rain
3:53 PM 52.0 °F 50.0 °F 93% 29.33 in 2.0 mi South 10.4 mph 24.2 mph 0.00 in   Overcast
4:34 PM 51.8 °F 50.0 °F 94% 29.33 in 3.0 mi South 10.4 mph 18.4 mph N/A   Overcast
4:53 PM 52.0 °F 48.9 °F 89% 29.33 in 4.0 mi South 9.2 mph 18.4 mph N/A   Overcast
5:48 PM 51.8 °F 50.0 °F 94% 29.31 in 2.0 mi South 12.7 mph 23.0 mph 0.00 in Rain Light Rain
5:53 PM 52.0 °F 50.0 °F 93% 29.31 in 3.0 mi SSE 10.4 mph 23.0 mph 0.00 in Rain Light Rain
6:06 PM 51.8 °F 50.0 °F 94% 29.31 in 3.0 mi South 11.5 mph 23.0 mph 0.00 in Rain Light Rain
6:28 PM 51.8 °F 48.2 °F 88% 29.30 in 2.5 mi South 9.2 mph 25.3 mph 0.00 in Rain Light Rain
6:34 PM 51.8 °F 48.2 °F 88% 29.30 in 1.8 mi South 11.5 mph 25.3 mph 0.01 in Rain Light Rain
6:40 PM 51.8 °F 50.0 °F 94% 29.31 in 1.2 mi South 15.0 mph 25.3 mph 0.05 in Rain Heavy Rain
6:53 PM 50.0 °F 48.9 °F 96% 29.30 in 1.2 mi SSE 8.1 mph - 0.14 in Rain Rain
7:24 PM 48.2 °F 46.4 °F 93% 29.30 in 1.5 mi South 9.2 mph 31.1 mph 0.21 in Rain Rain
7:36 PM 48.2 °F 48.2 °F 100% 29.29 in 2.5 mi SSE 11.5 mph 19.6 mph 0.24 in Rain Light Rain
7:43 PM 50.0 °F 48.2 °F 94% 29.30 in 5.0 mi South 10.4 mph 19.6 mph 0.24 in Rain Light Rain
7:53 PM 48.9 °F 48.0 °F 97% 29.30 in 5.0 mi South 13.8 mph 20.7 mph 0.24 in Rain Light Rain
8:05 PM 50.0 °F 48.2 °F 94% 29.30 in 3.0 mi South 9.2 mph - 0.01 in Rain Light Rain
8:17 PM 50.0 °F 48.2 °F 94% 29.30 in 4.0 mi South 8.1 mph 19.6 mph 0.01 in   Overcast
8:33 PM 50.0 °F 48.2 °F 94% 29.29 in 4.0 mi South 16.1 mph 26.5 mph 0.01 in Rain Light Rain
8:43 PM 50.0 °F 48.2 °F 94% 29.30 in 4.0 mi Variable 6.9 mph 17.3 mph 0.01 in Rain Light Rain
8:53 PM 50.0 °F 48.0 °F 93% 29.30 in 4.0 mi South 9.2 mph 20.7 mph 0.01 in Rain Light Rain
9:14 PM 50.0 °F 48.2 °F 94% 29.29 in 3.0 mi SSE 5.8 mph - 0.00 in Rain Light Rain
9:19 PM 50.0 °F 48.2 °F 94% 29.28 in 4.0 mi Variable 6.9 mph - 0.00 in Rain Light Rain
9:26 PM 50.0 °F 48.2 °F 94% 29.28 in 2.5 mi SSE 8.1 mph - 0.00 in Rain Light Rain
9:32 PM 50.0 °F 48.2 °F 94% 29.28 in 1.5 mi SSE 6.9 mph - 0.01 in Rain Rain
9:39 PM 50.0 °F 48.2 °F 94% 29.28 in 3.0 mi SE 8.1 mph - 0.02 in Rain Light Rain
9:53 PM 50.0 °F 48.9 °F 96% 29.28 in 6.0 mi SSE 8.1 mph - 0.02 in   Overcast
10:03 PM 50.0 °F 48.2 °F 94% 29.27 in 2.0 mi SE 6.9 mph - 0.00 in Rain Light Rain
10:06 PM 50.0 °F 48.2 °F 94% 29.27 in 1.2 mi SE 6.9 mph - 0.03 in Rain Heavy Rain
10:13 PM 50.0 °F 48.2 °F 94% 29.27 in 1.8 mi SE 8.1 mph - 0.07 in Rain Light Rain
10:15 PM 50.0 °F 48.2 °F 94% 29.27 in 3.0 mi SE 8.1 mph - 0.07 in Rain Light Rain
10:35 PM 50.0 °F 48.2 °F 94% 29.27 in 2.0 mi SSE 8.1 mph - 0.08 in Rain Light Rain
10:48 PM 50.0 °F 48.2 °F 94% 29.27 in 5.0 mi South 9.2 mph - 0.08 in Rain Light Rain
10:53 PM 50.0 °F 48.9 °F 96% 29.28 in 5.0 mi SSE 8.1 mph 16.1 mph 0.08 in   Overcast
11:05 PM 50.0 °F 48.2 °F 94% 29.28 in 1.8 mi SSE 11.5 mph 29.9 mph 0.02 in Rain Rain
11:19 PM 50.0 °F 48.2 °F 94% 29.28 in 2.5 mi South 11.5 mph 19.6 mph 0.05 in Rain Light Rain
11:23 PM 50.0 °F 48.2 °F 94% 29.28 in 3.0 mi Variable 6.9 mph 19.6 mph 0.06 in Rain Light Rain
11:42 PM 48.2 °F 46.4 °F 93% 29.27 in 5.0 mi SSE 8.1 mph 16.1 mph 0.06 in   Mostly Cloudy
11:53 PM 48.9 °F 46.9 °F 93% 29.28 in 6.0 mi SSE 10.4 mph 19.6 mph 0.06 in   Mostly Cloudy